Home > Weather > Bryansk > Past weeks

Flag for Russia Past Weather in Bryansk, Russia — Yesterday and Last 2 Weeks

Now
81 °F

Sunny.


Feels Like: 83 °F
Forecast: 65 / 87 °F
Wind: 3 mph from Southwest

Location: Brjansk

Current Time: Jun 26, 2016 at 8:30:10 PM

Latest Report: Jun 26, 2016 at 8:00 PM


Visibility: 10 mi

Pressure: 30.01 "Hg

Humidity: 62%

Dew Point: 66 °F

Location of BryanskLocation

Past Weather in Bryansk — Graph

°F

Bryansk Temperature Yesterday

Maximum temperature yesterday: 82 °F (at 2:00 PM)
Minimum temperature yesterday: 59 °F (at 4:00 AM)
Average temperature yesterday: 77 °F

High & Low Weather Summary for the Past Weeks

 TemperatureHumidityPressure
High88 °F (Jun 21, 4:00 PM)100% (Jun 13, 5:00 AM)30.33 "Hg (Jun 13, 5:00 AM)
Low43 °F (Jun 12, 4:00 AM)37% (Jun 13, 3:30 PM)29.65 "Hg (Jun 15, 4:00 PM)
Average70 °F69%30.04 "Hg
* Reported Jun 12 4:00 AM — Jun 26 7:30 PM, Bryansk, Weather by CustomWeather, © 2016

Note: Actual official high and low records may vary slightly from our data, if they occured in-between our weather recording intervals... More about our weather records

Advertising

Bryansk Weather History for the Previous 24 Hours

Scroll right to see more
 ConditionsComfort  
Time TempWeatherWind HumidityBarometerVisibility
7:30 PM
Sun, Jun 26
81 °FSunny.6 mph62%30.01 "Hg10 mi
7:00 PM82 °FSunny.6 mph55%30.01 "Hg10 mi
6:30 PM82 °FPassing clouds.8 mph58%30.04 "HgN/A
6:00 PM84 °FPassing clouds.6 mph51%30.04 "HgN/A
5:30 PM84 °FPassing clouds.6 mph51%30.04 "HgN/A
5:00 PM82 °FPassing clouds.8 mph55%30.04 "HgN/A
4:30 PM84 °FPassing clouds.6 mph51%30.07 "HgN/A
4:00 PM86 °FPassing clouds.6 mph49%30.07 "HgN/A
3:30 PM84 °FPassing clouds.8 mph51%30.07 "HgN/A
3:00 PM84 °FPassing clouds.6 mph55%30.07 "HgN/A
2:30 PM84 °FPassing clouds.8 mph51%30.07 "HgN/A
2:00 PM84 °FPassing clouds.8 mph51%30.09 "HgN/A
1:30 PM84 °FPassing clouds.6 mph48%30.09 "HgN/A
1:00 PM82 °FPassing clouds.8 mph51%30.09 "HgN/A
12:30 PM82 °FPassing clouds.8 mph51%30.12 "HgN/A
12:00 PM82 °FPassing clouds.8 mph51%30.12 "HgN/A
11:30 AM81 °FPassing clouds.3 mph58%30.12 "HgN/A
11:00 AM81 °FPassing clouds.6 mph54%30.12 "HgN/A
10:30 AM81 °FSunny.6 mph54%30.12 "Hg10 mi
10:00 AM79 °FPassing clouds.3 mph58%30.12 "HgN/A
9:30 AM79 °FPassing clouds.3 mph58%30.12 "HgN/A
9:00 AM77 °FSunny.6 mph65%30.12 "Hg10 mi
8:30 AM77 °FSunny.3 mph61%30.15 "Hg10 mi
8:00 AM75 °FSunny.3 mph69%30.15 "Hg10 mi
7:30 AM73 °FSunny.3 mph74%30.15 "Hg10 mi
7:00 AM70 °FSunny.1 mph83%30.15 "Hg10 mi
6:30 AM66 °FSunny.No wind88%30.15 "Hg10 mi
6:00 AM64 °FSunny.No wind94%30.15 "Hg10 mi
5:00 AM61 °FClear.No wind100%30.15 "Hg6 mi
4:00 AM63 °FClear.No wind94%30.15 "Hg6 mi
Weather by CustomWeather, © 2016

See weather overviewHow to use our weather pages